User: anonymous   Login
Location: Unspecified
(0.0000°N, 0.0000°E)
Time: 13:21:52
(UTC+02:00)
Language:

NAVSTAR 65 (USA 213) - Orbit

View from above orbital plane
View from above orbital plane
View from above satellite
View from above satellite

Ground track
Ground track

The orbit data is extracted from the following two-line orbital elements,

1 36585U 10022A   18228.22037712 -.00000085  00000-0  00000+0 0  9990
2 36585  55.7753 323.7449 0072725  48.6907  28.6424  2.00571661 60189
Epoch (UTC): 16 August 2018 05:17:20
Eccentricity: 0.0072725
inclination: 55.7753°
perigee height: 19988 km
apogee height: 20374 km
right ascension of ascending node: 323.7449°
argument of perigee: 48.6907°
revolutions per day: 2.00571661
mean anomaly at epoch: 28.6424°
orbit number at epoch: 6018

The dashed part of the orbit path shows where the satellite is in the earth's shadow,  

DLR